Location: Killam
(52.7910°N, 111.8608°W)
Time: 13:37:11
(UTC+00:00)

Tiros 1 - Pass Details

Date: 25 February 2026
Orbit: 618 x 650 km, 48.4° (Epoch: 13 March)

Event Time Altitude Azimuth Distance (km) Brightness Sun altitude
Exits shadow 12:16:20 - 185° (S) 2,769 10.2 -19.8°
Reaches altitude 10° 12:20:12 10° 149° (SSE) 2,013 9.9 -19.2°
Maximum altitude 12:21:04 11° 138° (SE) 1,981 10.0 -19.1°
Drops below altitude 10° 12:21:57 10° 127° (SE) 2,011 10.3 -19.0°
Sets 12:26:20 0° 88° (E) 2,914 12.2 -18.3°
